| time (UTC) | temp C | wind direction | speed KPH | gust KPH | rain 1hr cm | rain 24hr cm | rain mn cm | humidity % | barometer mb |
| 20260906123021 | 16 | 30 | 0.0 | 0.0 | 0.00 | 0.00 | 0.00 | 99 | 1002.3 |
| 20260906122604 | 16 | 32 | 0.0 | 0.0 | 0.00 | 0.00 | 0.00 | 99 | 1002.3 |
| 20260906122148 | 16 | 28 | 0.0 | 0.0 | 0.00 | 0.00 | 0.00 | 99 | 1002.0 |
| 20260906121715 | 16 | 25 | 0.0 | 0.0 | 0.00 | 0.00 | 0.00 | 99 | 1002.0 |
| 20260906121241 | 16 | 37 | 0.0 | 0.0 | 0.00 | 0.00 | 0.00 | 99 | 1002.0 |
| 20260906115853 | 16 | 34 | 0.0 | 0.0 | 0.00 | 0.00 | 0.00 | 99 | 1002.0 |
| 20260906115421 | 16 | 44 | 1.6 | 1.6 | 0.00 | 0.00 | 0.00 | 99 | 1001.6 |
| 20260906114947 | 16 | 42 | 1.6 | 1.6 | 0.00 | 0.00 | 0.00 | 99 | 1001.6 |
| 20260906114532 | 16 | 45 | 1.6 | 1.6 | 0.00 | 0.00 | 0.00 | 99 | 1002.0 |
| 20260906114117 | 16 | 42 | 1.6 | 1.6 | 0.00 | 0.00 | 0.00 | 99 | 1001.6 |
| 20260906113615 | 16 | 41 | 0.0 | 0.0 | 0.00 | 0.00 | 0.00 | 99 | 1002.0 |
| 20260906112655 | 16 | 60 | 1.6 | 1.6 | 0.00 | 0.00 | 0.00 | 99 | 1002.0 |
| 20260906111739 | 16 | 43 | 0.0 | 0.0 | 0.00 | 0.00 | 0.00 | 99 | 1001.6 |
| 20260906111323 | 16 | 38 | 0.0 | 0.0 | 0.00 | 0.00 | 0.00 | 99 | 1001.6 |
| 20260906110906 | 16 | 41 | 1.6 | 1.6 | 0.00 | 0.00 | 0.00 | 99 | 1001.6 |
| 20260906110435 | 16 | 29 | 0.0 | 0.0 | 0.00 | 0.00 | 0.00 | 99 | 1001.3 |
| 20260906110021 | 16 | 47 | 1.6 | 1.6 | 0.00 | 0.00 | 0.00 | 99 | 1001.6 |
| 20260906105120 | 16 | 37 | 0.0 | 0.0 | 0.00 | 0.00 | 0.00 | 99 | 1001.3 |
| 20260906104650 | 16 | 35 | 0.0 | 0.0 | 0.00 | 0.00 | 0.00 | 99 | 1001.3 |
| 20260906104232 | 16 | 29 | 0.0 | 0.0 | 0.00 | 0.00 | 0.00 | 99 | 1001.3 |
| 20260906103815 | 16 | 24 | 0.0 | 0.0 | 0.00 | 0.00 | 0.00 | 99 | 1001.3 |
| 20260906103359 | 16 | 30 | 0.0 | 0.0 | 0.00 | 0.00 | 0.00 | 99 | 1001.0 |
| 20260906102441 | 16 | 24 | 0.0 | 0.0 | 0.00 | 0.00 | 0.00 | 99 | 1001.0 |
| 20260906102010 | 16 | 30 | 0.0 | 0.0 | 0.00 | 0.00 | 0.00 | 99 | 1000.6 |
| 20260906101125 | 16 | 37 | 0.0 | 1.6 | 0.00 | 0.00 | 0.00 | 99 | 1001.0 |
| 20260906100223 | 16 | 24 | 0.0 | 0.0 | 0.00 | 0.00 | 0.00 | 99 | 1001.0 |
| 20260906095751 | 16 | 24 | 0.0 | 0.0 | 0.00 | 0.00 | 0.00 | 99 | 1001.0 |
| 20260906095321 | 16 | 24 | 0.0 | 0.0 | 0.00 | 0.00 | 0.00 | 99 | 1001.0 |
| 20260906094902 | 16 | 32 | 0.0 | 0.0 | 0.00 | 0.00 | 0.00 | 99 | 1001.0 |
| 20260906093946 | 16 | 24 | 0.0 | 0.0 | 0.00 | 0.00 | 0.00 | 99 | 1001.0 |
| 20260906093529 | 16 | 32 | 0.0 | 0.0 | 0.00 | 0.00 | 0.00 | 99 | 1001.0 |
| 20260906093114 | 16 | 33 | 0.0 | 0.0 | 0.00 | 0.00 | 0.00 | 99 | 1001.0 |
| 20260906092656 | 16 | 38 | 0.0 | 0.0 | 0.00 | 0.00 | 0.00 | 99 | 1001.0 |
| 20260906091340 | 17 | 24 | 0.0 | 0.0 | 0.00 | 0.00 | 0.00 | 99 | 1001.0 |
| 20260906090908 | 17 | 20 | 0.0 | 0.0 | 0.00 | 0.00 | 0.00 | 99 | 1001.0 |
| 20260906090002 | 17 | 40 | 0.0 | 0.0 | 0.00 | 0.00 | 0.00 | 99 | 1001.0 |
| 20260906085530 | 17 | 27 | 0.0 | 0.0 | 0.00 | 0.00 | 0.00 | 99 | 1000.6 |
| 20260906085113 | 17 | 40 | 1.6 | 1.6 | 0.00 | 0.00 | 0.00 | 99 | 1001.0 |
| 20260906084642 | 17 | 24 | 0.0 | 0.0 | 0.00 | 0.00 | 0.00 | 99 | 1001.0 |
| 20260906084212 | 17 | 33 | 0.0 | 0.0 | 0.00 | 0.00 | 0.00 | 99 | 1001.0 |
| 20260906083739 | 17 | 32 | 0.0 | 0.0 | 0.00 | 0.00 | 0.00 | 99 | 1001.0 |
| 20260906083323 | 17 | 38 | 0.0 | 1.6 | 0.00 | 0.00 | 0.00 | 99 | 1000.6 |
| 20260906082904 | 17 | 38 | 1.6 | 1.6 | 0.00 | 0.00 | 0.00 | 99 | 1001.3 |
| 20260906082433 | 17 | 33 | 0.0 | 0.0 | 0.00 | 0.00 | 0.00 | 99 | 1001.3 |
| 20260906082002 | 17 | 30 | 0.0 | 0.0 | 0.00 | 0.00 | 0.00 | 99 | 1001.0 |
| 20260906081515 | 17 | 28 | 0.0 | 0.0 | 0.00 | 0.00 | 0.00 | 99 | 1001.0 |
| 20260906081044 | 17 | 30 | 0.0 | 0.0 | 0.00 | 0.00 | 0.00 | 99 | 1001.0 |
| 20260906080614 | 17 | 30 | 0.0 | 0.0 | 0.00 | 0.00 | 0.00 | 99 | 1000.6 |
| 20260906080144 | 17 | 30 | 0.0 | 0.0 | 0.00 | 0.00 | 0.00 | 99 | 1001.0 |
| 20260906075726 | 17 | 29 | 0.0 | 0.0 | 0.00 | 0.00 | 0.00 | 99 | 1000.6 |
| 20260906074837 | 17 | 30 | 0.0 | 0.0 | 0.00 | 0.00 | 0.00 | 99 | 1000.6 |
| 20260906074422 | 17 | 30 | 0.0 | 0.0 | 0.00 | 0.00 | 0.00 | 99 | 1000.6 |
| 20260906074004 | 17 | 29 | 0.0 | 0.0 | 0.00 | 0.00 | 0.00 | 99 | 1001.0 |
| 20260906073533 | 17 | 29 | 0.0 | 1.6 | 0.00 | 0.00 | 0.00 | 99 | 1000.6 |
| 20260906073116 | 17 | 31 | 0.0 | 0.0 | 0.00 | 0.00 | 0.00 | 99 | 1000.6 |
| 20260906072227 | 17 | 34 | 0.0 | 0.0 | 0.00 | 0.00 | 0.00 | 99 | 1000.6 |
| 20260906071756 | 17 | 38 | 0.0 | 0.0 | 0.00 | 0.00 | 0.00 | 99 | 1001.0 |
| 20260906071340 | 17 | 28 | 0.0 | 0.0 | 0.00 | 0.00 | 0.00 | 99 | 1001.0 |
| 20260906070422 | 17 | 31 | 0.0 | 0.0 | 0.00 | 0.00 | 0.00 | 99 | 1001.0 |
| 20260906065518 | 17 | 34 | 0.0 | 0.0 | 0.00 | 0.00 | 0.00 | 99 | 1001.0 |
| 20260906064630 | 17 | 32 | 0.0 | 0.0 | 0.00 | 0.00 | 0.00 | 99 | 1001.0 |
| 20260906063725 | 17 | 37 | 0.0 | 0.0 | 0.00 | 0.00 | 0.00 | 99 | 1001.0 |
| 20260906063307 | 17 | 40 | 1.6 | 1.6 | 0.00 | 0.00 | 0.00 | 99 | 1001.0 |
| 20260906062851 | 17 | 24 | 0.0 | 0.0 | 0.00 | 0.00 | 0.00 | 99 | 1001.0 |
| 20260906062436 | 17 | 33 | 0.0 | 0.0 | 0.00 | 0.00 | 0.00 | 99 | 1001.0 |
| 20260906062002 | 17 | 36 | 0.0 | 1.6 | 0.00 | 0.00 | 0.00 | 99 | 1001.0 |
| 20260906061531 | 17 | 31 | 0.0 | 0.0 | 0.00 | 0.00 | 0.00 | 99 | 1001.0 |
| 20260906061114 | 17 | 49 | 1.6 | 1.6 | 0.00 | 0.00 | 0.00 | 99 | 1001.0 |
| 20260906060657 | 17 | 44 | 1.6 | 1.6 | 0.00 | 0.00 | 0.00 | 99 | 1001.0 |
| 20260906060242 | 17 | 53 | 1.6 | 1.6 | 0.00 | 0.00 | 0.00 | 99 | 1001.0 |
| 20260906055825 | 17 | 61 | 1.6 | 3.2 | 0.00 | 0.00 | 0.00 | 99 | 1001.0 |
| 20260906055410 | 17 | 42 | 1.6 | 1.6 | 0.00 | 0.00 | 0.00 | 99 | 1001.0 |
| 20260906054954 | 17 | 43 | 1.6 | 1.6 | 0.00 | 0.00 | 0.00 | 99 | 1001.0 |
| 20260906054053 | 17 | 39 | 1.6 | 1.6 | 0.00 | 0.00 | 0.00 | 99 | 1001.0 |
| 20260906053639 | 17 | 30 | 0.0 | 0.0 | 0.00 | 0.00 | 0.00 | 99 | 1001.0 |
| 20260906053208 | 17 | 28 | 0.0 | 0.0 | 0.00 | 0.00 | 0.00 | 99 | 1001.0 |
| 20260906052737 | 17 | 26 | 0.0 | 0.0 | 0.00 | 0.00 | 0.00 | 99 | 1000.6 |
| 20260906052306 | 18 | 40 | 0.0 | 0.0 | 0.00 | 0.00 | 0.00 | 99 | 1000.6 |
| 20260906051834 | 18 | 47 | 1.6 | 1.6 | 0.00 | 0.00 | 0.00 | 99 | 1000.6 |
| 20260906050918 | 18 | 48 | 1.6 | 1.6 | 0.00 | 0.00 | 0.00 | 99 | 1000.6 |
| 20260906050503 | 18 | 63 | 1.6 | 3.2 | 0.00 | 0.00 | 0.00 | 99 | 1000.6 |
| 20260906050033 | 18 | 44 | 0.0 | 1.6 | 0.00 | 0.00 | 0.00 | 99 | 1001.0 |
| 20260906045616 | 18 | 55 | 1.6 | 1.6 | 0.00 | 0.00 | 0.00 | 99 | 1000.6 |
| 20260906045159 | 18 | 34 | 0.0 | 0.0 | 0.00 | 0.00 | 0.00 | 99 | 1001.0 |
| 20260906044743 | 18 | 43 | 0.0 | 1.6 | 0.00 | 0.00 | 0.00 | 99 | 1001.3 |
| 20260906044312 | 18 | 45 | 1.6 | 1.6 | 0.00 | 0.00 | 0.00 | 99 | 1001.3 |
| 20260906043840 | 18 | 31 | 0.0 | 0.0 | 0.00 | 0.00 | 0.00 | 99 | 1001.3 |
| 20260906043410 | 18 | 29 | 0.0 | 0.0 | 0.00 | 0.00 | 0.00 | 99 | 1001.6 |
| 20260906042509 | 18 | 23 | 0.0 | 0.0 | 0.00 | 0.00 | 0.00 | 99 | 1001.0 |
| 20260906042054 | 18 | 17 | 0.0 | 0.0 | 0.00 | 0.00 | 0.00 | 99 | 1001.3 |
| 20260906041622 | 18 | 17 | 0.0 | 0.0 | 0.00 | 0.00 | 0.00 | 99 | 1001.6 |
| 20260906041136 | 18 | 24 | 0.0 | 0.0 | 0.00 | 0.00 | 0.00 | 99 | 1001.6 |
| 20260906040719 | 18 | 27 | 0.0 | 0.0 | 0.00 | 0.00 | 0.00 | 99 | 1001.3 |
| 20260906040302 | 18 | 34 | 0.0 | 0.0 | 0.00 | 0.00 | 0.00 | 99 | 1001.6 |
| 20260906035832 | 18 | 48 | 1.6 | 1.6 | 0.00 | 0.00 | 0.03 | 99 | 1001.3 |
| 20260906035415 | 18 | 36 | 0.0 | 0.0 | 0.00 | 0.00 | 0.03 | 99 | 1001.6 |
| 20260906034958 | 18 | 28 | 0.0 | 0.0 | 0.00 | 0.00 | 0.03 | 99 | 1001.6 |
| 20260906034545 | 18 | 29 | 0.0 | 0.0 | 0.00 | 0.00 | 0.03 | 99 | 1001.6 |
| 20260906033610 | 18 | 41 | 0.0 | 0.0 | 0.00 | 0.00 | 0.03 | 99 | 1001.6 |
| 20260906033156 | 18 | 33 | 0.0 | 0.0 | 0.00 | 0.00 | 0.03 | 99 | 1002.0 |
| 20260906032721 | 18 | 24 | 0.0 | 0.0 | 0.00 | 0.00 | 0.03 | 99 | 1002.0 |
| 20260906032250 | 18 | 18 | 0.0 | 0.0 | 0.00 | 0.00 | 0.03 | 99 | 1002.3 |
| 20260906031348 | 18 | 17 | 0.0 | 0.0 | 0.00 | 0.00 | 0.03 | 99 | 1002.0 |
| 20260906030444 | 18 | 38 | 0.0 | 0.0 | 0.00 | 0.00 | 0.03 | 99 | 1002.0 |
| 20260906030027 | 18 | 33 | 0.0 | 0.0 | 0.00 | 0.00 | 0.03 | 99 | 1002.0 |
| 20260906025556 | 18 | 34 | 0.0 | 0.0 | 0.00 | 0.00 | 0.03 | 99 | 1002.3 |
| 20260906025123 | 18 | 36 | 0.0 | 0.0 | 0.00 | 0.00 | 0.03 | 99 | 1002.0 |
| 20260906024650 | 18 | 11 | 1.6 | 1.6 | 0.00 | 0.00 | 0.00 | 99 | 1001.6 |
| 20260906024219 | 18 | 16 | 0.0 | 0.0 | 0.00 | 0.00 | 0.00 | 99 | 1001.6 |
| 20260906023746 | 18 | 26 | 0.0 | 0.0 | 0.00 | 0.00 | 0.00 | 99 | 1001.6 |
| 20260906022844 | 18 | 5 | 0.0 | 0.0 | 0.00 | 0.00 | 0.00 | 99 | 1002.0 |
| 20260906022412 | 18 | 23 | 0.0 | 0.0 | 0.00 | 0.00 | 0.00 | 99 | 1001.6 |
| 20260906021956 | 18 | 28 | 0.0 | 0.0 | 0.00 | 0.00 | 0.00 | 99 | 1001.6 |
| 20260906021526 | 18 | 49 | 1.6 | 1.6 | 0.00 | 0.00 | 0.00 | 99 | 1001.6 |
| 20260906021109 | 18 | 28 | 0.0 | 0.0 | 0.00 | 0.00 | 0.00 | 99 | 1001.6 |
| 20260906020621 | 18 | 9 | 0.0 | 1.6 | 0.00 | 0.00 | 0.00 | 99 | 1001.6 |
| 20260906020150 | 18 | 32 | 0.0 | 0.0 | 0.00 | 0.00 | 0.00 | 99 | 1001.3 |
| 20260906015301 | 18 | 14 | 0.0 | 0.0 | 0.00 | 0.00 | 0.00 | 99 | 1001.6 |
| 20260906014829 | 18 | 23 | 0.0 | 0.0 | 0.00 | 0.00 | 0.00 | 99 | 1001.6 |
| 20260906013941 | 18 | 29 | 0.0 | 0.0 | 0.00 | 0.00 | 0.00 | 99 | 1001.6 |
| 20260906013524 | 18 | 36 | 0.0 | 0.0 | 0.00 | 0.00 | 0.00 | 99 | 1001.6 |
| 20260906013051 | 18 | 36 | 0.0 | 0.0 | 0.00 | 0.00 | 0.00 | 99 | 1001.3 |
| 20260906011731 | 18 | 21 | 0.0 | 0.0 | 0.00 | 0.00 | 0.00 | 99 | 1001.3 |
| 20260906011245 | 18 | 17 | 0.0 | 0.0 | 0.00 | 0.00 | 0.00 | 99 | 1001.0 |
| 20260906010341 | 19 | 25 | 0.0 | 0.0 | 0.00 | 0.00 | 0.00 | 99 | 1001.0 |
| 20260906005924 | 19 | 31 | 0.0 | 0.0 | 0.00 | 0.00 | 0.00 | 99 | 1000.6 |
| 20260906005508 | 19 | 37 | 0.0 | 0.0 | 0.00 | 0.00 | 0.00 | 99 | 1001.0 |
| 20260906005036 | 19 | 37 | 0.0 | 1.6 | 0.00 | 0.00 | 0.00 | 99 | 1001.0 |
| 20260906004132 | 19 | 42 | 1.6 | 1.6 | 0.00 | 0.00 | 0.00 | 99 | 1001.0 |
| 20260906003714 | 20 | 42 | 1.6 | 1.6 | 0.00 | 0.00 | 0.00 | 99 | 1001.0 |
| 20260906003258 | 19 | 43 | 1.6 | 1.6 | 0.00 | 0.00 | 0.00 | 98 | 1001.0 |
| 20260906002811 | 19 | 18 | 0.0 | 0.0 | 0.00 | 0.00 | 0.00 | 98 | 1000.6 |
| 20260906002354 | 20 | 18 | 0.0 | 0.0 | 0.00 | 0.00 | 0.00 | 98 | 1001.0 |
| 20260906001937 | 20 | 18 | 1.6 | 1.6 | 0.00 | 0.00 | 0.00 | 98 | 1001.0 |
| 20260906001521 | 20 | 18 | 0.0 | 1.6 | 0.00 | 0.00 | 0.00 | 97 | 1000.6 |
| 20260906001049 | 20 | 16 | 0.0 | 0.0 | 0.00 | 0.00 | 0.00 | 97 | 1000.6 |
| 20260906000204 | 20 | 16 | 0.0 | 0.0 | 0.00 | 0.00 | 0.00 | 96 | 1001.0 |
| 20260905235744 | 20 | 316 | 0.0 | 1.6 | 0.00 | 0.00 | 0.00 | 95 | 1001.0 |
| 20260905235310 | 20 | 316 | 0.0 | 0.0 | 0.00 | 0.00 | 0.00 | 95 | 1001.0 |
| 20260905234839 | 20 | 316 | 0.0 | 1.6 | 0.00 | 0.00 | 0.00 | 95 | 1001.0 |
| 20260905234423 | 20 | 316 | 0.0 | 0.0 | 0.00 | 0.00 | 0.00 | 94 | 1000.6 |
| 20260905234008 | 20 | 316 | 0.0 | 0.0 | 0.00 | 0.00 | 0.00 | 95 | 1001.0 |
| 20260905233553 | 21 | 316 | 0.0 | 0.0 | 0.00 | 0.00 | 0.00 | 95 | 1001.0 |
| 20260905232654 | 21 | 316 | 0.0 | 0.0 | 0.00 | 0.00 | 0.00 | 94 | 1001.0 |
| 20260905232226 | 21 | 316 | 0.0 | 0.0 | 0.00 | 0.00 | 0.00 | 94 | 1001.0 |
| 20260905231756 | 21 | 316 | 0.0 | 0.0 | 0.00 | 0.00 | 0.00 | 93 | 1001.0 |
| 20260905230911 | 21 | 316 | 0.0 | 0.0 | 0.00 | 0.00 | 0.00 | 93 | 1001.3 |
| 20260905230441 | 21 | 316 | 0.0 | 0.0 | 0.00 | 0.00 | 0.00 | 93 | 1001.3 |
| 20260905230010 | 21 | 316 | 0.0 | 0.0 | 0.00 | 0.00 | 0.00 | 93 | 1001.0 |
| 20260905225055 | 22 | 316 | 0.0 | 0.0 | 0.00 | 0.00 | 0.00 | 93 | 1001.3 |
| 20260905224638 | 22 | 316 | 0.0 | 0.0 | 0.00 | 0.00 | 0.00 | 92 | 1001.0 |
| 20260905224220 | 22 | 316 | 0.0 | 0.0 | 0.00 | 0.00 | 0.00 | 91 | 1001.3 |
| 20260905223802 | 22 | 316 | 0.0 | 0.0 | 0.00 | 0.00 | 0.00 | 90 | 1001.0 |
| 20260905223333 | 22 | 316 | 0.0 | 0.0 | 0.00 | 0.00 | 0.00 | 89 | 1001.0 |
| 20260905222917 | 22 | 316 | 0.0 | 0.0 | 0.00 | 0.00 | 0.00 | 87 | 1001.0 |
| 20260905222503 | 23 | 316 | 0.0 | 0.0 | 0.00 | 0.00 | 0.00 | 86 | 1001.3 |
| 20260905222047 | 24 | 316 | 0.0 | 0.0 | 0.00 | 0.00 | 0.00 | 85 | 1001.0 |
| 20260905221632 | 24 | 316 | 0.0 | 0.0 | 0.00 | 0.00 | 0.00 | 82 | 1001.3 |
| 20260905220730 | 25 | 316 | 0.0 | 0.0 | 0.00 | 0.00 | 0.00 | 76 | 1001.0 |
| 20260905215838 | 26 | 316 | 0.0 | 0.0 | 0.00 | 0.00 | 0.00 | 76 | 1001.0 |
| 20260905214951 | 25 | 328 | 1.6 | 1.6 | 0.00 | 0.00 | 0.00 | 75 | 1001.0 |
| 20260905214521 | 25 | 342 | 0.0 | 0.0 | 0.00 | 0.00 | 0.00 | 79 | 1001.0 |
| 20260905214105 | 26 | 342 | 1.6 | 1.6 | 0.00 | 0.00 | 0.00 | 76 | 1000.6 |
| 20260905213636 | 27 | 323 | 0.0 | 1.6 | 0.00 | 0.00 | 0.00 | 74 | 1001.0 |
| 20260905212252 | 27 | 32 | 1.6 | 1.6 | 0.00 | 0.00 | 0.00 | 72 | 1000.6 |
| 20260905211407 | 26 | 301 | 1.6 | 1.6 | 0.00 | 0.00 | 0.00 | 72 | 1000.6 |
| 20260905210950 | 26 | 18 | 1.6 | 1.6 | 0.00 | 0.00 | 0.00 | 76 | 1000.6 |
| 20260905210536 | 26 | 18 | 0.0 | 1.6 | 0.00 | 0.00 | 0.00 | 76 | 1000.3 |
| 20260905210105 | 27 | 7 | 1.6 | 1.6 | 0.00 | 0.00 | 0.00 | 71 | 1000.3 |
| 20260905205617 | 27 | 294 | 1.6 | 1.6 | 0.00 | 0.00 | 0.00 | 70 | 1000.3 |
| 20260905204719 | 26 | 333 | 0.0 | 0.0 | 0.00 | 0.00 | 0.00 | 74 | 1000.3 |
| 20260905204301 | 26 | 333 | 1.6 | 1.6 | 0.00 | 0.00 | 0.00 | 70 | 1000.3 |
| 20260905203845 | 26 | 322 | 1.6 | 1.6 | 0.00 | 0.00 | 0.00 | 69 | 1000.3 |
| 20260905203430 | 26 | 313 | 3.2 | 3.2 | 0.00 | 0.00 | 0.00 | 72 | 1000.3 |
| 20260905203015 | 26 | 311 | 1.6 | 1.6 | 0.00 | 0.00 | 0.00 | 71 | 1000.3 |
| 20260905202601 | 26 | 326 | 1.6 | 3.2 | 0.00 | 0.00 | 0.00 | 71 | 1000.3 |
| 20260905202146 | 26 | 304 | 3.2 | 3.2 | 0.00 | 0.00 | 0.00 | 75 | 1000.6 |
| 20260905201732 | 26 | 300 | 1.6 | 1.6 | 0.00 | 0.00 | 0.00 | 74 | 1000.6 |
| 20260905201316 | 26 | 322 | 1.6 | 1.6 | 0.00 | 0.00 | 0.00 | 76 | 1000.6 |
| 20260905200846 | 27 | 225 | 3.2 | 3.2 | 0.00 | 0.00 | 0.00 | 71 | 1000.6 |
| 20260905200401 | 27 | 310 | 1.6 | 1.6 | 0.00 | 0.00 | 0.00 | 70 | 1000.6 |
| 20260905195946 | 27 | 348 | 0.0 | 1.6 | 0.00 | 0.00 | 0.00 | 72 | 1000.6 |
| 20260905195516 | 27 | 348 | 1.6 | 1.6 | 0.00 | 0.00 | 0.00 | 70 | 1000.6 |
| 20260905195100 | 27 | 346 | 0.0 | 0.0 | 0.00 | 0.00 | 0.00 | 71 | 1000.6 |
| 20260905194155 | 27 | 5 | 0.0 | 1.6 | 0.00 | 0.00 | 0.00 | 74 | 1001.0 |
| 20260905193708 | 26 | 332 | 3.2 | 3.2 | 0.00 | 0.00 | 0.00 | 73 | 1000.6 |
| 20260905193252 | 26 | 38 | 0.0 | 0.0 | 0.00 | 0.00 | 0.00 | 72 | 1001.0 |
| 20260905191933 | 26 | 19 | 0.0 | 0.0 | 0.00 | 0.00 | 0.00 | 76 | 1001.0 |
| 20260905191049 | 26 | 352 | 1.6 | 1.6 | 0.00 | 0.00 | 0.00 | 74 | 1001.3 |
| 20260905190617 | 26 | 342 | 1.6 | 1.6 | 0.00 | 0.00 | 0.00 | 73 | 1001.3 |
| 20260905185730 | 25 | 341 | 1.6 | 1.6 | 0.00 | 0.00 | 0.00 | 74 | 1001.3 |
| 20260905185314 | 25 | 349 | 1.6 | 1.6 | 0.00 | 0.00 | 0.00 | 78 | 1001.6 |
| 20260905184843 | 25 | 316 | 4.8 | 6.4 | 0.00 | 0.00 | 0.00 | 76 | 1001.3 |
| 20260905184429 | 25 | 354 | 1.6 | 1.6 | 0.00 | 0.00 | 0.00 | 76 | 1001.6 |
| 20260905183958 | 25 | 6 | 0.0 | 1.6 | 0.00 | 0.00 | 0.00 | 77 | 1001.3 |
| 20260905183527 | 25 | 358 | 1.6 | 1.6 | 0.00 | 0.00 | 0.00 | 80 | 1001.6 |
| 20260905183110 | 25 | 0 | 0.0 | 1.6 | 0.00 | 0.00 | 0.00 | 78 | 1001.6 |
| 20260905182652 | 25 | 4 | 1.6 | 1.6 | 0.00 | 0.00 | 0.00 | 79 | 1001.6 |
| 20260905182223 | 24 | 8 | 1.6 | 1.6 | 0.00 | 0.00 | 0.00 | 80 | 1002.0 |
| 20260905181805 | 24 | 11 | 0.0 | 0.0 | 0.00 | 0.00 | 0.00 | 80 | 1001.6 |
| 20260905180914 | 23 | 48 | 3.2 | 3.2 | 0.00 | 0.00 | 0.00 | 85 | 1002.0 |
| 20260905180012 | 23 | 204 | 3.2 | 4.8 | 0.00 | 0.00 | 0.00 | 81 | 1002.3 |
| 20260905175557 | 24 | 309 | 1.6 | 1.6 | 0.00 | 0.00 | 0.00 | 84 | 1002.3 |
| 20260905175143 | 23 | 14 | 0.0 | 1.6 | 0.00 | 0.00 | 0.00 | 83 | 1002.3 |
| 20260905174726 | 23 | 358 | 1.6 | 3.2 | 0.00 | 0.00 | 0.00 | 84 | 1002.3 |
| 20260905174257 | 22 | 3 | 1.6 | 1.6 | 0.00 | 0.00 | 0.00 | 93 | 1002.3 |
| 20260905173842 | 22 | 30 | 0.0 | 1.6 | 0.00 | 0.00 | 0.00 | 92 | 1002.3 |
| 20260905172955 | 22 | 28 | 0.0 | 1.6 | 0.00 | 0.00 | 0.00 | 94 | 1002.3 |
| 20260905172539 | 21 | 38 | 1.6 | 1.6 | 0.00 | 0.00 | 0.00 | 94 | 1002.7 |
| 20260905172109 | 21 | 33 | 1.6 | 1.6 | 0.00 | 0.00 | 0.00 | 96 | 1002.7 |
| 20260905171651 | 21 | 38 | 0.0 | 1.6 | 0.00 | 0.00 | 0.00 | 97 | 1002.7 |
| 20260905171238 | 21 | 60 | 1.6 | 3.2 | 0.00 | 0.00 | 0.00 | 99 | 1002.3 |
| 20260905170805 | 21 | 318 | 1.6 | 3.2 | 0.00 | 0.00 | 0.00 | 99 | 1002.7 |
| 20260905170335 | 21 | 14 | 0.0 | 1.6 | 0.00 | 0.00 | 0.00 | 99 | 1002.7 |
| 20260905165918 | 21 | 45 | 0.0 | 1.6 | 0.00 | 0.00 | 0.00 | 99 | 1002.7 |
| 20260905165501 | 21 | 243 | 0.0 | 0.0 | 0.00 | 0.00 | 0.00 | 99 | 1002.3 |
| 20260905165045 | 21 | 240 | 3.2 | 3.2 | 0.00 | 0.00 | 0.00 | 99 | 1002.7 |
| 20260905164629 | 21 | 43 | 1.6 | 1.6 | 0.00 | 0.00 | 0.00 | 99 | 1002.7 |
| 20260905164214 | 21 | 51 | 1.6 | 3.2 | 0.00 | 0.00 | 0.00 | 99 | 1002.7 |
| 20260905163742 | 20 | 6 | 0.0 | 0.0 | 0.00 | 0.00 | 0.00 | 99 | 1003.0 |
| 20260905163312 | 20 | 6 | 1.6 | 1.6 | 0.00 | 0.00 | 0.00 | 99 | 1002.7 |
| 20260905162840 | 21 | 26 | 1.6 | 1.6 | 0.00 | 0.00 | 0.00 | 99 | 1003.0 |
| 20260905161951 | 21 | 309 | 0.0 | 0.0 | 0.00 | 0.00 | 0.00 | 99 | 1002.3 |
| 20260905161536 | 21 | 309 | 0.0 | 0.0 | 0.00 | 0.00 | 0.00 | 99 | 1002.3 |
| 20260905160649 | 21 | 309 | 0.0 | 0.0 | 0.00 | 0.00 | 0.00 | 99 | 1002.3 |
| 20260905155332 | 20 | 309 | 3.2 | 4.8 | 0.00 | 0.00 | 0.00 | 99 | 1002.0 |
| 20260905154847 | 20 | 344 | 1.6 | 3.2 | 0.00 | 0.00 | 0.00 | 99 | 1002.0 |
| 20260905154417 | 20 | 22 | 0.0 | 0.0 | 0.00 | 0.00 | 0.00 | 99 | 1002.0 |
| 20260905153527 | 19 | 21 | 0.0 | 0.0 | 0.00 | 0.00 | 0.00 | 99 | 1001.6 |
| 20260905153111 | 19 | 20 | 0.0 | 0.0 | 0.00 | 0.00 | 0.00 | 99 | 1001.6 |
| 20260905152653 | 19 | 17 | 0.0 | 0.0 | 0.00 | 0.00 | 0.00 | 99 | 1001.6 |
| 20260905152236 | 18 | 16 | 0.0 | 0.0 | 0.00 | 0.00 | 0.00 | 99 | 1001.6 |
| 20260905151347 | 18 | 347 | 1.6 | 3.2 | 0.00 | 0.00 | 0.00 | 99 | 1001.3 |
| 20260905150931 | 18 | 20 | 0.0 | 0.0 | 0.00 | 0.00 | 0.00 | 99 | 1001.3 |
| 20260905150513 | 18 | 16 | 0.0 | 0.0 | 0.00 | 0.00 | 0.00 | 99 | 1001.6 |
| 20260905150057 | 18 | 335 | 3.2 | 4.8 | 0.00 | 0.00 | 0.00 | 99 | 1001.6 |
| 20260905145641 | 18 | 20 | 0.0 | 0.0 | 0.00 | 0.00 | 0.00 | 99 | 1002.0 |
| 20260905145225 | 18 | 23 | 1.6 | 1.6 | 0.00 | 0.00 | 0.00 | 99 | 1002.3 |
| 20260905144808 | 18 | 43 | 0.0 | 1.6 | 0.00 | 0.00 | 0.00 | 99 | 1002.7 |
| 20260905144352 | 18 | 30 | 0.0 | 0.0 | 0.00 | 0.00 | 0.00 | 99 | 1003.0 |
| 20260905143935 | 18 | 20 | 0.0 | 0.0 | 0.00 | 0.00 | 0.00 | 99 | 1003.0 |
| 20260905143504 | 18 | 37 | 0.0 | 1.6 | 0.00 | 0.00 | 0.00 | 99 | 1003.0 |
| 20260905143032 | 17 | 43 | 0.0 | 1.6 | 0.00 | 0.00 | 0.00 | 99 | 1003.3 |
| 20260905142615 | 17 | 33 | 0.0 | 0.0 | 0.00 | 0.00 | 0.00 | 99 | 1003.3 |
| 20260905142159 | 17 | 32 | 0.0 | 0.0 | 0.00 | 0.00 | 0.00 | 99 | 1003.3 |
| 20260905141740 | 17 | 34 | 0.0 | 0.0 | 0.00 | 0.00 | 0.00 | 99 | 1003.3 |
| 20260905141325 | 17 | 22 | 0.0 | 0.0 | 0.00 | 0.00 | 0.00 | 99 | 1003.3 |
| 20260905140838 | 17 | 40 | 0.0 | 0.0 | 0.00 | 0.00 | 0.00 | 99 | 1003.0 |
| 20260905140422 | 17 | 24 | 0.0 | 0.0 | 0.00 | 0.00 | 0.00 | 99 | 1003.3 |
| 20260905140005 | 17 | 21 | 0.0 | 0.0 | 0.00 | 0.00 | 0.00 | 99 | 1003.3 |
| 20260905135547 | 17 | 35 | 0.0 | 1.6 | 0.00 | 0.00 | 0.00 | 99 | 1003.3 |
| 20260905135130 | 17 | 38 | 0.0 | 1.6 | 0.00 | 0.00 | 0.00 | 99 | 1003.3 |
| 20260905134658 | 17 | 20 | 0.0 | 0.0 | 0.00 | 0.00 | 0.00 | 99 | 1003.3 |
| 20260905134242 | 17 | 29 | 0.0 | 0.0 | 0.00 | 0.00 | 0.00 | 99 | 1003.3 |
| 20260905132919 | 17 | 30 | 0.0 | 0.0 | 0.00 | 0.00 | 0.00 | 99 | 1003.7 |
| 20260905132448 | 17 | 37 | 0.0 | 0.0 | 0.00 | 0.00 | 0.00 | 99 | 1004.0 |
| 20260905132017 | 17 | 38 | 0.0 | 0.0 | 0.00 | 0.00 | 0.00 | 99 | 1004.0 |
| 20260905131546 | 17 | 29 | 0.0 | 0.0 | 0.00 | 0.00 | 0.00 | 99 | 1004.4 |
| 20260905131129 | 17 | 41 | 0.0 | 1.6 | 0.00 | 0.00 | 0.00 | 99 | 1004.4 |
| 20260905130713 | 17 | 45 | 0.0 | 1.6 | 0.00 | 0.00 | 0.00 | 99 | 1004.0 |
| 20260905125822 | 18 | 7 | 1.6 | 1.6 | 0.00 | 0.00 | 0.00 | 99 | 1004.4 |
| 20260905125404 | 18 | 27 | 0.0 | 1.6 | 0.00 | 0.00 | 0.00 | 99 | 1004.4 |
| 20260905124933 | 18 | 6 | 0.0 | 1.6 | 0.00 | 0.00 | 0.00 | 99 | 1004.4 |
| 20260905124501 | 18 | 128 | 1.6 | 1.6 | 0.00 | 0.00 | 0.00 | 99 | 1004.4 |
| 20260905124046 | 18 | 347 | 1.6 | 1.6 | 0.00 | 0.00 | 0.00 | 99 | 1003.7 |
| 20260905123616 | 18 | 71 | 3.2 | 3.2 | 0.00 | 0.00 | 0.00 | 99 | 1003.7 |